Weather History for San Antonio Stinson, TX

Change the Weather History Date:

Sunday, January 13, 2013

  Actual Average Record
Temperature  
Mean Temperature 50 °F -  
Max Temperature 57 °F 62 °F 75 °F (2000)
Min Temperature 42 °F 41 °F 28 °F (2012)
Degree Days  
Heating Degree Days 15    
Moisture  
Dew Point 31 °F    
Average Humidity 49    
Maximum Humidity 59    
Minimum Humidity 33    
Precipitation  
Precipitation 0.00 in - - ()
Sea Level Pressure  
Sea Level Pressure 30.05 in    
Wind  
Wind Speed 13 mph (North)    
Max Wind Speed 18 mph    
Max Gust Speed 25 mph    
Visibility 10 miles    
Events      
Averages and records for this station are not official NWS values.
T = Trace of Precipitation, MM = Missing Value Source: NWS Daily Summary

Daily Weather History Graph

Daily Weather History Graph

Search for Another Location

Airport:

Trip Planner

Search our weather history database for the weather conditions in past years. The results will help you decide how hot, cold, wet, or windy it might be!

Date:

Astronomy

Jan. 13, 2013 Rise Set
Actual Time 7:29 AM CST 5:56 PM CST
Civil Twilight 7:03 AM CST 6:22 PM CST
Nautical Twilight 6:34 AM CST 6:51 PM CST
Astronomical Twilight 6:05 AM CST 7:19 PM CST
Moon 8:41 AM CST (1/13) 8:21 PM CST (1/13)
Length of Visible Light 11h 18m
Length of Day
10h 27m
Waxing Crescent, 5% of the Moon is Illuminated
Jan 13
Waxing Crescent
Jan 18
First Quarter
Jan 26
Full
Feb 3
Last Quarter
Feb 10
New

Hourly Weather History & Observations

Time (CST) Temp. Windchill Dew Point Humidity Pressure Visibility Wind Dir Wind Speed Gust Speed Precip Events Conditions
12:03 AM 55.4 °F - 41.0 °F 58% 29.84 in 10.0 mi NNE 17.3 mph 25.3 mph N/A   Overcast
12:53 AM 53.1 °F - 39.0 °F 59% 29.86 in 10.0 mi North 18.4 mph 24.2 mph N/A   Overcast
1:53 AM 51.1 °F - 36.0 °F 56% 29.87 in 10.0 mi North 10.4 mph 23.0 mph N/A   Overcast
2:53 AM 50.0 °F - 34.0 °F 54% 29.90 in 10.0 mi North 12.7 mph - N/A   Overcast
3:53 AM 48.9 °F - 32.0 °F 52% 29.93 in 10.0 mi North 13.8 mph 25.3 mph N/A   Overcast
4:53 AM 46.9 °F - 30.9 °F 54% 29.94 in 10.0 mi North 15.0 mph 21.9 mph N/A   Overcast
5:53 AM 46.9 °F - 30.9 °F 54% 29.98 in 10.0 mi North 6.9 mph - N/A   Overcast
6:53 AM 46.0 °F 41.4 °F 30.0 °F 54% 30.02 in 10.0 mi North 9.2 mph - N/A   Overcast
7:53 AM 46.0 °F 41.9 °F 28.9 °F 51% 30.06 in 10.0 mi North 8.1 mph - N/A   Overcast
8:53 AM 46.0 °F 40.6 °F 30.0 °F 54% 30.09 in 10.0 mi North 11.5 mph 16.1 mph N/A   Clear
9:53 AM 46.9 °F - 30.0 °F 52% 30.14 in 10.0 mi North 11.5 mph 18.4 mph N/A   Clear
10:53 AM 48.9 °F - 28.9 °F 46% 30.13 in 10.0 mi North 13.8 mph 19.6 mph N/A   Clear
11:53 AM 51.1 °F - 28.9 °F 43% 30.11 in 10.0 mi North 11.5 mph - N/A   Clear
12:53 PM 55.0 °F - 30.9 °F 40% 30.09 in 10.0 mi North 13.8 mph - N/A   Clear
1:53 PM 57.0 °F - 30.0 °F 36% 30.07 in 10.0 mi NE 13.8 mph 18.4 mph N/A   Clear
2:53 PM 57.9 °F - 28.9 °F 33% 30.07 in 10.0 mi North 9.2 mph 18.4 mph N/A   Clear
3:53 PM 57.0 °F - 28.9 °F 34% 30.08 in 10.0 mi North 13.8 mph 19.6 mph N/A   Clear
4:53 PM 55.0 °F - 30.0 °F 38% 30.09 in 10.0 mi NNE 9.2 mph - N/A   Clear
5:53 PM 51.1 °F - 30.9 °F 46% 30.10 in 10.0 mi NNE 8.1 mph - N/A   Clear
6:53 PM 50.0 °F - 32.0 °F 50% 30.12 in 10.0 mi NNE 8.1 mph - N/A   Clear
7:53 PM 48.0 °F - 32.0 °F 54% 30.13 in 10.0 mi North 9.2 mph - N/A   Clear
8:53 PM 46.9 °F - 28.9 °F 50% 30.15 in 10.0 mi North 6.9 mph - N/A   Clear
9:53 PM 45.0 °F 39.7 °F 30.0 °F 56% 30.17 in 10.0 mi NE 10.4 mph - N/A   Clear
10:53 PM 43.0 °F 37.7 °F 28.9 °F 58% 30.15 in 10.0 mi NE 9.2 mph - N/A   Clear
11:53 PM 42.1 °F 35.7 °F 27.0 °F 55% 30.16 in 10.0 mi NNE 11.5 mph 18.4 mph N/A   Clear